VK4RM-13 Weather Reports


time (UTC)temp
C
wind
direction
speed
KPH
gust
KPH
rain 1hr
cm
rain 24hr
cm
rain mn
cm
humidity
%
barometer
mb
20260509222626 22 295 3.2 12.9 0.00 0.00 0.00 74 1002.2
20260509221626 22 0 1.6 3.2 0.00 0.00 0.00 77 1002.0
20260509220626 21 334 1.6 9.7 0.00 0.00 0.00 78 1002.0
20260509215626 21 304 1.6 8.0 0.00 0.00 0.00 81 1001.8
20260509214626 20 355 1.6 11.3 0.00 0.00 0.00 83 1001.7
20260509213626 19 355 0.0 6.4 0.00 0.00 0.00 89 1001.5
20260509212626 18 192 0.0 0.0 0.00 0.00 0.00 94 1001.4
20260509211626 17 190 0.0 0.0 0.00 0.00 0.00 93 1001.2
20260509205626 17 189 0.0 0.0 0.00 0.00 0.00 92 1001.1
20260509204626 17 189 0.0 0.0 0.00 0.00 0.00 92 1001.0
20260509203626 17 188 0.0 0.0 0.00 0.00 0.00 91 1001.0
20260509202626 17 189 0.0 0.0 0.00 0.00 0.00 91 1001.0
20260509201626 17 190 0.0 1.6 0.00 0.00 0.00 90 1000.7
20260509200626 17 190 0.0 0.0 0.00 0.00 0.00 90 1000.6
20260509195626 17 135 0.0 0.0 0.00 0.00 0.00 90 1000.3
20260509194626 17 158 0.0 0.0 0.00 0.00 0.00 90 1000.1
20260509193626 18 159 0.0 0.0 0.00 0.00 0.00 89 1000.1
20260509192626 18 164 0.0 0.0 0.00 0.00 0.00 89 1000.2
20260509191626 18 168 0.0 6.4 0.00 0.00 0.00 89 1000.2
20260509190626 18 38 0.0 0.0 0.00 0.00 0.00 89 1000.2
20260509185626 18 38 1.6 4.8 0.00 0.00 0.00 89 1000.1
20260509184626 18 340 0.0 6.4 0.00 0.00 0.00 90 1000.0
20260509183626 18 0 0.0 0.0 0.00 0.00 0.00 90 999.9
20260509182626 18 0 0.0 0.0 0.00 0.00 0.00 90 999.6
20260509181626 18 0 0.0 3.2 0.00 0.00 0.00 91 999.6
20260509180626 18 319 0.0 0.0 0.00 0.00 0.00 92 999.6
20260509175626 18 355 0.0 1.6 0.00 0.00 0.00 92 999.6
20260509174626 18 0 0.0 8.0 0.00 0.00 0.00 93 999.6
20260509173626 17 30 0.0 0.0 0.00 0.00 0.00 93 999.5
20260509172626 17 337 0.0 0.0 0.00 0.00 0.00 93 999.6
20260509171626 17 337 0.0 3.2 0.00 0.00 0.00 93 999.6
20260509170626 17 5 0.0 1.6 0.00 0.00 0.00 92 999.6
20260509165626 17 321 0.0 0.0 0.00 0.00 0.00 92 999.7
20260509164626 17 321 0.0 0.0 0.00 0.00 0.00 92 999.6
20260509163626 17 347 0.0 0.0 0.00 0.00 0.00 92 999.7
20260509162626 17 347 0.0 0.0 0.00 0.00 0.00 92 999.8
20260509161626 17 346 0.0 0.0 0.00 0.00 0.00 92 999.9
20260509160626 17 346 0.0 0.0 0.00 0.00 0.00 92 1000.1
20260509155626 17 346 0.0 0.0 0.00 0.00 0.00 92 1000.2
20260509153626 17 36 0.0 0.0 0.00 0.00 0.00 92 1000.4
20260509152626 17 36 0.0 0.0 0.00 0.00 0.00 92 1000.3
20260509151627 17 36 0.0 0.0 0.00 0.00 0.00 92 1000.4
20260509150627 17 34 0.0 1.6 0.00 0.00 0.00 92 1000.5
20260509145627 17 355 0.0 0.0 0.00 0.00 0.00 92 1000.6
20260509144627 17 71 0.0 11.3 0.00 0.00 0.00 92 1000.5
20260509143627 17 315 0.0 0.0 0.00 0.00 0.00 91 1000.6
20260509142627 17 315 0.0 0.0 0.00 0.00 0.00 90 1000.7
20260509141627 17 315 0.0 0.0 0.00 0.00 0.00 90 1000.7
20260509140627 17 311 0.0 0.0 0.00 0.00 0.00 90 1000.7
20260509135627 17 311 0.0 0.0 0.00 0.00 0.00 90 1000.8
20260509134627 17 9 0.0 0.0 0.00 0.00 0.00 90 1000.9
20260509133627 17 336 0.0 3.2 0.00 0.00 0.00 91 1000.9
20260509132627 17 308 1.6 6.4 0.00 0.00 0.00 91 1000.9
20260509131627 17 333 3.2 14.5 0.00 0.00 0.00 94 1001.0
20260509130627 16 348 0.0 0.0 0.00 0.00 0.00 92 1001.1
20260509125627 16 347 0.0 0.0 0.00 0.00 0.00 92 1001.1
20260509124627 16 355 0.0 0.0 0.00 0.00 0.00 91 1001.2
20260509123627 16 355 0.0 0.0 0.00 0.00 0.00 91 1001.1
20260509122627 16 65 0.0 0.0 0.00 0.00 0.00 90 1001.3
20260509121627 16 68 0.0 0.0 0.00 0.00 0.00 90 1001.3
20260509120627 16 68 0.0 0.0 0.00 0.00 0.00 89 1001.3
20260509115636 16 68 0.0 0.0 0.00 0.00 0.00 89 1001.5
20260509114627 16 68 0.0 0.0 0.00 0.00 0.00 89 1001.5
20260509113627 16 68 0.0 0.0 0.00 0.00 0.00 88 1001.6
20260509112627 16 68 0.0 0.0 0.00 0.00 0.00 88 1001.7
20260509111630 16 68 0.0 0.0 0.00 0.00 0.00 88 1001.6
20260509110627 16 68 0.0 0.0 0.00 0.00 0.00 88 1001.6
20260509105627 16 68 0.0 0.0 0.00 0.00 0.00 87 1001.4
20260509104627 15 68 0.0 0.0 0.00 0.00 0.00 86 1001.5
20260509103627 15 68 0.0 0.0 0.00 0.00 0.00 86 1001.4
20260509102627 15 68 0.0 0.0 0.00 0.00 0.00 86 1001.4
20260509101627 15 68 0.0 0.0 0.00 0.00 0.00 85 1001.4
20260509100627 15 68 0.0 0.0 0.00 0.00 0.00 85 1001.3
20260509095627 15 68 0.0 0.0 0.00 0.00 0.00 84 1001.3
20260509094627 15 68 0.0 0.0 0.00 0.00 0.00 83 1001.2
20260509093627 15 68 0.0 0.0 0.00 0.00 0.00 83 1001.1
20260509092627 15 68 0.0 0.0 0.00 0.00 0.00 81 1001.0
20260509091627 15 68 0.0 0.0 0.00 0.00 0.00 80 1000.8
20260509090627 15 68 0.0 0.0 0.00 0.00 0.00 79 1000.8
20260509085627 16 68 0.0 0.0 0.00 0.00 0.00 79 1000.5
20260509084627 16 68 0.0 0.0 0.00 0.00 0.00 77 1000.4
20260509083630 16 68 0.0 0.0 0.00 0.00 0.00 75 1000.2
20260509082627 16 68 0.0 0.0 0.00 0.00 0.00 74 1000.1
20260509081628 16 68 0.0 0.0 0.00 0.00 0.00 73 1000.1
20260509080627 17 68 0.0 0.0 0.00 0.00 0.00 72 999.8
20260509075627 17 68 0.0 0.0 0.00 0.00 0.00 70 999.6
20260509074627 17 68 0.0 0.0 0.00 0.00 0.00 68 999.5
20260509073627 17 68 0.0 0.0 0.00 0.00 0.00 66 999.4
20260509072627 18 68 0.0 0.0 0.00 0.00 0.00 65 999.3
20260509071627 18 68 0.0 0.0 0.00 0.00 0.00 63 999.2
20260509070627 18 68 1.6 3.2 0.00 0.00 0.00 60 999.1
20260509065627 20 65 0.0 0.0 0.00 0.00 0.00 53 999.0
20260509064627 22 25 0.0 3.2 0.00 0.00 0.00 44 998.9
20260509063628 23 0 0.0 0.0 0.00 0.00 0.00 39 998.8
20260509062628 24 348 1.6 8.0 0.00 0.00 0.00 36 998.7
20260509061628 25 355 0.0 1.6 0.00 0.00 0.00 36 998.6
20260509060628 25 5 0.0 4.8 0.00 0.00 0.00 35 998.4
20260509055628 25 344 1.6 11.3 0.00 0.00 0.00 33 998.3
20260509054628 25 340 1.6 8.0 0.00 0.00 0.00 30 998.1
20260509053628 25 318 1.6 8.0 0.00 0.00 0.00 30 998.1
20260509052628 25 5 0.0 4.8 0.00 0.00 0.00 31 997.9
20260509051628 25 333 1.6 8.0 0.00 0.00 0.00 31 997.9
20260509050628 25 348 3.2 8.0 0.00 0.00 0.00 33 998.0
20260509045628 25 336 1.6 12.9 0.00 0.00 0.00 31 997.8
20260509044628 25 343 3.2 9.7 0.00 0.00 0.00 34 997.7
20260509043628 25 355 4.8 16.1 0.00 0.00 0.00 36 997.7
20260509042628 25 5 1.6 14.5 0.00 0.00 0.00 35 997.8
20260509041628 25 325 3.2 14.5 0.00 0.00 0.00 35 997.9
20260509040628 25 355 4.8 16.1 0.00 0.00 0.00 34 997.9
20260509035628 25 298 1.6 9.7 0.00 0.00 0.00 35 997.9
20260509034628 25 307 3.2 9.7 0.00 0.00 0.00 35 998.1
20260509033628 25 12 4.8 11.3 0.00 0.00 0.00 35 998.3
20260509032629 25 306 3.2 9.7 0.00 0.00 0.00 35 998.3
20260509031628 25 24 1.6 12.9 0.00 0.00 0.00 33 998.3
20260509030628 25 34 1.6 9.7 0.00 0.00 0.00 34 998.5
20260509025628 25 28 1.6 16.1 0.00 0.00 0.00 35 998.5
20260509024628 25 355 3.2 11.3 0.00 0.00 0.00 36 998.6
20260509023628 24 305 3.2 11.3 0.00 0.00 0.00 37 998.8
20260509022628 25 0 1.6 11.3 0.00 0.00 0.00 37 998.8
20260509021628 24 351 3.2 9.7 0.00 0.00 0.00 36 999.0
20260509020628 24 19 3.2 8.0 0.00 0.00 0.00 39 999.1
20260509015628 24 0 3.2 11.3 0.00 0.00 0.00 38 999.3
20260509014628 24 18 3.2 12.9 0.00 0.00 0.00 37 999.5
20260509013628 24 355 3.2 9.7 0.00 0.00 0.00 38 999.7
20260509012628 23 320 3.2 9.7 0.00 0.00 0.00 38 999.8
20260509011628 23 5 3.2 9.7 0.00 0.00 0.00 40 999.8
20260509010628 23 5 1.6 9.7 0.00 0.00 0.00 41 1000.1
20260509005628 23 338 1.6 12.9 0.00 0.00 0.00 39 1000.2
20260509004628 22 355 3.2 9.7 0.00 0.00 0.00 39 1000.4
20260509003628 22 355 3.2 11.3 0.00 0.00 0.00 40 1000.5
20260509002628 22 0 0.0 3.2 0.00 0.00 0.00 39 1000.6
20260509001628 21 346 4.8 11.3 0.00 0.00 0.00 39 1000.8
20260509000628 22 67 4.8 11.3 0.00 0.00 0.00 38 1000.8
20260508235628 21 10 1.6 8.0 0.00 0.00 0.00 39 1000.9
20260508234628 21 345 3.2 12.9 0.00 0.00 0.00 37 1000.9
20260508233628 21 36 1.6 6.4 0.00 0.00 0.00 37 1000.8
20260508232628 21 73 3.2 12.9 0.00 0.00 0.00 38 1000.8
20260508231628 20 5 1.6 9.7 0.00 0.00 0.00 39 1000.7
20260508230628 20 340 0.0 3.2 0.00 0.00 0.00 42 1000.6
20260508225628 19 59 1.6 9.7 0.00 0.00 0.00 41 1000.8
20260508224628 19 62 1.6 8.0 0.00 0.00 0.00 41 1000.6
20260508223628 19 277 0.0 3.2 0.00 0.00 0.00 44 1000.6